Rouyn Airport, Quebec

3:32 AM ADT on August 17, 2017 (GMT -0300)
Rouyn Airport

Weather History for CYUY - January, 2013

Change the Weather History Date:

Thursday, January 10, 2013

  Actual Average Record
Temperature  
Mean Temperature 28 °F -  
Max Temperature 32 °F - - ()
Min Temperature 24 °F - - ()
Degree Days  
Heating Degree Days 37    
Moisture  
Dew Point 22 °F    
Average Humidity 80    
Maximum Humidity 93    
Minimum Humidity 64    
Precipitation  
Precipitation 0.00 in - - ()
Sea Level Pressure  
Sea Level Pressure 30.38 in    
Wind  
Wind Speed 10 mph ()    
Max Wind Speed 17 mph    
Max Gust Speed 26 mph    
Visibility 13.2 miles    
Events Snow    
T = Trace of Precipitation, MM = Missing Value Source: Averaged Metar Reports

Daily Weather History Graph

Daily Weather History Graph

Search for Another Location

Airport or City:

Trip Planner

Search our weather history database for the weather conditions in past years. The results will help you decide how hot, cold, wet, or windy it might be!

Date:

Astronomy

Jan. 10, 2013 Rise Set
Actual Time 9:03 AM AST 5:42 PM AST
Civil Twilight 8:27 AM AST 6:18 PM AST
Nautical Twilight 7:48 AM AST 6:57 PM AST
Astronomical Twilight 7:11 AM AST 7:34 PM AST
Moon 7:41 AM AST (1/10) 4:49 PM AST (1/10)
Length of Visible Light 9h 50m
Length of Day
8h 38m
Waning Crescent, 2% of the Moon is Illuminated
Jan 10
Waning Crescent
Jan 11
New
Jan 18
First Quarter
Jan 27
Full
Feb 3
Last Quarter

Hourly Weather History & Observations

Time (AST) Temp. Windchill Dew Point Humidity Pressure Visibility Wind Dir Wind Speed Gust Speed Precip Events Conditions
12:00 AM 32.0 °F 20.8 °F 28.4 °F 87% 30.00 in 10.0 mi West 17.3 mph 26.5 mph N/A Snow Light Snow Showers
1:00 AM 32.0 °F 23.0 °F 28.4 °F 87% 30.04 in 10.0 mi West 11.5 mph 20.7 mph N/A Snow Light Snow Showers
2:00 AM 32.0 °F 22.5 °F 28.4 °F 87% 30.12 in 4.0 mi WNW 12.7 mph 25.3 mph N/A Snow Light Snow Showers
3:00 AM 32.0 °F 21.6 °F 28.4 °F 87% 30.19 in 4.0 mi WNW 15.0 mph 24.2 mph N/A Snow Light Snow Showers
3:47 AM 30.2 °F 20.2 °F 28.4 °F 93% 30.25 in 1.5 mi NW 12.7 mph 18.4 mph N/A Snow Light Snow Showers
3:52 AM 30.2 °F 19.8 °F 28.4 °F 93% 30.25 in 12.0 mi WNW 13.8 mph 20.7 mph N/A Snow Light Snow Showers
4:00 AM 30.2 °F 19.3 °F 26.6 °F 86% 30.26 in 12.0 mi WNW 15.0 mph 21.9 mph N/A Snow Light Snow Showers
5:00 AM 30.2 °F 21.3 °F 24.8 °F 80% 30.30 in 15.0 mi NNW 10.4 mph 20.7 mph N/A Snow Light Snow Showers
6:00 AM 28.4 °F 18.5 °F 24.8 °F 86% 30.33 in 15.0 mi NW 11.5 mph 17.3 mph N/A Snow Light Snow Showers
7:00 AM 28.4 °F 18.5 °F 23.0 °F 80% 30.37 in 15.0 mi NW 11.5 mph - N/A Snow Light Snow Showers
8:00 AM 26.6 °F 17.5 °F 21.2 °F 80% 30.42 in 15.0 mi NW 9.2 mph 20.7 mph N/A Snow Light Snow Showers
9:00 AM 24.8 °F 19.1 °F 21.2 °F 86% 30.45 in 15.0 mi NNW 4.6 mph - N/A   Mostly Cloudy
10:00 AM 24.8 °F 17.9 °F 19.4 °F 80% 30.47 in 20.0 mi NW 5.8 mph - N/A   Mostly Cloudy
11:00 AM 24.8 °F 16.9 °F 17.6 °F 74% 30.50 in 15.0 mi NW 6.9 mph - N/A   Partly Cloudy
12:00 PM 24.8 °F 16.1 °F 15.8 °F 69% 30.51 in 15.0 mi West 8.1 mph - N/A   Partly Cloudy
1:00 PM 24.8 °F 12.9 °F 14.0 °F 64% 30.53 in 15.0 mi West 13.8 mph - N/A   Scattered Clouds
2:00 PM 26.6 °F 17.5 °F 15.8 °F 64% 30.53 in 15.0 mi WNW 9.2 mph - N/A   Mostly Cloudy
3:00 PM 28.4 °F 19.7 °F 17.6 °F 64% 30.53 in 15.0 mi WNW 9.2 mph - N/A   Scattered Clouds
4:00 PM 28.4 °F 22.2 °F 17.6 °F 64% 30.51 in 15.0 mi WSW 5.8 mph - N/A   Scattered Clouds
5:00 PM 28.4 °F 23.3 °F 19.4 °F 69% 30.48 in 15.0 mi SSE 4.6 mph - N/A   Mostly Cloudy
6:00 PM 28.4 °F 20.4 °F 21.2 °F 74% 30.45 in 15.0 mi SSE 8.1 mph - N/A   Mostly Cloudy
7:00 PM 26.6 °F 19.1 °F 21.2 °F 80% 30.45 in 15.0 mi South 6.9 mph - N/A   Partly Cloudy
8:00 PM 24.8 °F 19.1 °F 21.2 °F 86% 30.46 in 15.0 mi SSW 4.6 mph - N/A   Clear
9:00 PM 24.8 °F - 21.2 °F 86% 30.48 in 15.0 mi SE 2.3 mph - N/A   Clear
10:00 PM 24.8 °F 15.3 °F 21.2 °F 86% 30.45 in 15.0 mi South 9.2 mph - N/A   Clear
11:00 PM 24.8 °F 14.0 °F 21.2 °F 86% 30.42 in 15.0 mi South 11.5 mph - N/A   Scattered Clouds